Theta_e
298 298 298 299 302 305 305 298 284 292 298 287 285 284 285 288 285 286 285 283 283 279 278 277 277 277 281 285 284 280 282 279 273 277 278 278 277 269 270 266 263 259 262 268
297 297 297 299 302 304 299 291 289 295 296 278 281 284 284 285 284 284 283 283 283 279 277 277 277 279 283 285 283 281 282 278 273 275 276 276 273 273 270 267 266 263 264 269
296 297 296 298 300 302 299 288 283 287 289 287 279 278 278 283 286 285 286 285 285 280 274 277 278 279 282 284 284 287 284 278 276 274 275 273 266 268 271 271 261 260 265 268
298 296 297 297 299 301 298 291 277 277 275 283 284 281 283 282 281 285 286 282 282 279 276 277 278 278 281 283 285 284 281 274 276 277 278 276 270 270 270 269 265 269 264 264
300 298 297 296 298 300 295 289 280 286 283 285 284 284 282 282 284 283 282 280 280 282 280 280 275 278 279 278 281 280 280 274 276 274 275 268 266 268 269 272 263 265 268 272
299 300 297 296 297 298 293 294 292 287 284 283 282 282 283 283 283 285 287 284 283 281 282 282 282 282 282 281 279 279 277 274 274 271 273 271 268 267 264 263 261 270 266 272
298 299 298 296 296 296 294 294 291 285 276 282 282 284 284 283 284 283 287 287 280 282 285 284 283 281 280 280 279 281 275 274 275 271 272 265 272 259 263 265 264 267 267 269
299 299 297 296 296 296 294 297 293 287 278 282 283 284 284 285 285 285 285 285 285 286 282 278 275 272 268 266 275 278 279 276 270 269 268 272 273 267 265 267 270 265 268 273
300 298 298 296 296 295 294 296 296 292 280 280 284 283 284 279 280 281 281 283 285 283 281 276 269 262 272 268 266 278 279 278 274 270 266 264 273 271 269 265 269 266 264 265
300 299 298 297 296 294 293 294 295 292 283 283 286 281 280 280 280 278 280 280 279 282 278 273 270 269 268 265 262 264 268 271 270 271 269 270 274 274 274 268 270 266 262 264
300 300 298 298 297 294 290 289 294 292 283 279 287 288 284 285 280 278 277 276 279 277 275 274 274 273 268 272 267 267 269 269 269 270 268 267 275 275 274 277 272 270 264 265
301 300 299 298 297 295 291 284 289 293 286 278 289 289 289 289 287 283 278 278 281 281 277 275 277 274 273 270 263 276 272 274 272 274 276 279 277 278 277 272 277 278 272 273
301 300 300 299 298 296 291 283 284 284 276 279 276 275 282 285 286 288 278 284 283 283 284 280 276 274 278 270 270 270 274 277 275 277 281 281 284 282 278 278 279 281 279 279
301 301 301 300 299 297 291 283 284 282 277 267 270 286 283 286 286 286 288 285 286 286 285 281 274 273 277 274 275 275 277 278 277 278 282 284 283 285 283 284 279 282 282 280
300 300 299 300 299 298 288 285 286 284 277 266 266 279 282 284 284 284 287 287 285 283 281 273 272 276 277 275 277 276 277 277 277 276 281 281 281 283 284 283 282 283 283 282
299 298 299 299 299 296 290 280 283 285 281 269 263 275 279 281 283 284 284 286 285 284 281 274 276 280 280 270 274 276 278 278 279 278 280 278 280 283 280 279 281 282 282 282
297 297 297 298 297 292 285 280 282 288 282 270 264 263 279 280 280 282 283 284 284 283 279 277 278 281 281 272 271 275 276 276 275 276 275 275 279 275 277 278 277 277 277 277
295 295 295 296 296 294 287 288 293 287 279 270 260 262 274 280 277 276 279 279 279 277 275 273 273 276 278 274 274 275 275 274 273 274 273 273 274 275 274 274 273 273 274 275
294 294 294 290 287 284 285 294 290 284 279 267 259 264 263 279 278 278 276 278 272 267 267 272 275 266 270 274 273 274 272 270 270 270 269 270 271 271 271 272 272 272 272 271
293 289 284 280 285 292 292 285 281 279 274 269 266 262 272 277 275 271 267 274 271 263 267 269 266 266 271 274 273 273 272 270 268 263 269 267 268 268 268 269 272 271 271 270
285 282 279 284 293 284 280 275 275 272 267 266 267 270 269 272 267 263 266 266 266 264 265 267 262 264 272 271 268 268 266 265 264 263 264 265 266 266 267 268 269 269 269 269
284 283 286 284 279 276 274 271 267 263 264 261 268 270 270 272 272 269 271 269 270 267 262 263 260 269 272 269 269 268 263 260 262 260 262 264 266 267 267 267 266 266 267 268
281 280 273 275 271 269 265 260 260 260 260 265 272 272 273 272 272 269 266 268 267 261 261 261 266 269 267 267 263 264 261 260 258 259 259 261 262 264 263 266 266 265 265 267
275 268 267 265 262 260 261 261 263 267 266 271 268 270 270 271 272 269 270 263 263 257 257 260 265 268 269 268 260 257 260 259 259 259 259 258 258 262 264 264 264 264 264 266
271 266 262 260 261 258 260 257 261 267 267 269 268 268 270 272 266 270 263 263 260 261 262 264 267 268 263 260 258 260 259 259 257 254 254 255 256 259 263 264 263 262 263 264
272 262 259 257 260 261 268 266 261 269 271 269 266 261 262 264 265 267 264 260 259 264 261 265 263 261 261 260 261 263 259 256 255 254 253 254 255 258 261 262 261 261 262 262
272 264 254 258 258 264 261 262 264 267 269 263 261 261 262 262 261 261 259 260 264 262 262 259 260 267 267 265 257 258 257 255 254 252 252 254 254 255 258 260 261 260 263 261
Wind_Speed
8 5 8 11 10 12 1 2 2 3 2 2 1 3 4 2 2 2 1 0 0 3 1 2 3 4 3 2 2 2 2 3 4 4 3 2 2 5 3 6 5 1 4 12
8 6 8 10 12 11 2 2 2 1 1 4 3 2 3 2 3 2 2 3 3 2 2 2 3 2 3 4 2 2 2 3 3 2 2 1 3 3 3 4 3 6 5 10
6 5 6 10 9 9 3 1 2 2 2 1 6 3 4 4 1 1 3 1 3 3 1 2 4 3 1 4 2 3 1 3 5 3 1 2 1 2 3 4 4 4 10 11
11 7 8 8 7 8 3 2 5 5 3 4 3 2 1 6 3 2 2 1 4 5 1 2 4 3 3 2 2 2 2 4 4 8 11 6 6 8 8 10 7 8 5 8
13 10 7 7 6 9 2 2 4 1 1 3 5 6 4 5 3 6 3 4 3 6 5 5 3 3 3 3 1 3 2 4 2 5 3 2 7 9 12 14 3 11 10 25
12 11 7 6 5 4 2 1 0 3 2 4 3 4 5 5 7 3 2 6 2 4 3 1 2 3 3 2 2 2 3 2 3 5 1 6 7 8 7 4 3 8 7 13
12 12 10 9 5 3 1 2 1 3 3 3 5 2 4 7 5 4 1 3 3 2 0 3 2 3 4 4 4 4 1 0 2 5 6 1 5 0 2 5 6 11 10 9
13 12 10 9 6 5 2 2 2 2 2 2 3 5 5 4 2 4 3 2 3 1 1 2 2 2 5 4 3 3 5 1 2 3 3 9 3 3 6 6 6 8 9 13
16 13 11 9 6 4 2 1 2 2 4 4 3 4 4 4 3 3 3 2 1 1 1 2 1 3 1 3 6 2 2 1 1 1 2 3 6 5 4 4 5 4 5 6
18 15 13 11 7 3 1 1 1 2 2 2 3 3 5 4 2 3 3 5 2 1 2 2 3 3 2 2 4 4 1 1 3 3 3 9 5 4 5 7 9 3 5 5
18 17 15 13 9 5 3 2 2 1 2 3 1 1 3 2 2 4 3 4 0 2 3 2 2 1 3 2 4 6 6 5 4 2 2 5 6 1 4 7 5 4 5 5
25 22 18 15 12 8 5 1 2 2 3 4 3 3 4 3 2 3 2 4 3 2 2 2 1 1 0 1 4 2 2 5 4 7 6 4 6 7 6 5 9 8 4 5
24 23 21 17 14 11 6 3 1 4 3 3 4 2 3 5 6 3 4 1 2 2 2 1 1 3 0 2 5 2 3 2 2 3 3 6 7 6 5 4 7 9 8 9
21 23 20 19 16 14 7 3 2 5 3 4 6 2 3 2 5 1 1 4 2 3 1 1 2 1 2 2 3 3 4 3 3 6 9 13 4 9 8 16 6 9 8 7
19 18 16 16 14 15 5 2 3 3 6 5 3 3 2 3 2 3 2 4 3 2 1 1 3 1 2 2 2 3 2 4 4 5 15 6 18 18 18 14 15 15 16 16
21 18 16 19 15 15 4 3 1 3 4 5 1 4 2 2 2 1 1 1 1 2 3 3 1 0 2 1 3 1 6 6 5 7 16 12 18 13 13 18 18 15 14 13
22 18 16 16 21 6 3 5 3 8 4 5 3 3 1 2 1 2 1 1 1 0 1 1 2 2 2 2 3 7 9 9 13 4 12 6 3 11 17 13 15 14 11 8
21 18 14 14 15 10 2 2 12 5 5 4 4 3 1 2 1 2 1 1 2 2 1 1 2 2 1 3 5 6 10 13 8 11 10 13 16 14 14 12 12 14 13 12
21 18 14 5 3 2 3 10 9 3 4 4 3 6 4 2 1 2 1 1 1 2 1 2 2 1 4 3 3 7 7 5 13 15 15 12 9 13 13 14 14 13 14 13
22 6 3 3 3 7 17 3 2 3 3 3 3 1 3 2 2 0 3 1 2 1 5 1 2 3 4 4 5 5 7 7 8 8 14 13 16 14 16 15 12 12 13 14
3 3 2 1 10 3 2 3 3 2 2 1 2 3 5 2 4 4 1 4 2 1 5 4 2 3 4 4 4 4 5 5 7 7 9 10 12 15 16 15 13 12 13 14
6 7 4 3 3 3 3 2 1 2 7 2 4 4 3 2 2 5 3 3 1 5 1 3 3 5 5 4 5 6 4 4 8 5 9 10 11 11 11 11 11 11 13 13
4 4 4 2 0 2 7 7 4 1 3 4 4 3 3 2 2 4 3 4 5 1 2 5 5 3 3 5 3 6 6 6 6 9 7 8 8 9 5 10 8 9 10 11
4 4 3 5 1 4 6 6 5 4 3 6 3 3 3 2 3 3 5 2 4 3 0 7 4 7 7 6 3 2 6 6 9 10 9 9 6 6 7 5 6 7 10 11
3 4 5 4 3 1 3 2 1 1 2 4 4 3 2 2 3 2 4 2 4 6 6 4 5 7 5 4 5 7 7 7 7 5 5 6 4 4 6 6 6 5 7 8
3 4 3 1 4 3 1 2 1 3 4 3 4 4 4 2 3 4 7 7 7 5 5 4 4 4 5 6 6 8 6 7 6 4 4 5 5 4 4 5 5 5 5 6
3 3 1 3 1 5 4 4 4 3 3 3 4 5 7 2 2 3 5 7 5 5 4 3 5 7 8 7 4 6 5 7 6 3 5 5 5 3 4 5 5 4 4 4
Wind_Direction
284 306 317 310 334 327 59 255 247 283 326 109 261 189 184 131 154 65 254 90 86 187 171 269 259 243 224 161 160 191 183 237 264 238 143 175 238 201 154 120 267 88 145 271
290 304 315 310 342 357 333 239 163 316 43 169 226 137 166 167 150 158 215 197 175 135 175 274 230 269 139 167 202 175 155 225 288 209 145 170 220 193 141 116 84 206 139 261
229 269 292 298 336 346 323 100 196 351 51 234 140 163 234 196 105 158 197 180 111 97 1 263 295 292 177 181 210 187 171 246 243 259 203 111 208 223 177 132 128 191 233 289
225 221 236 288 316 338 309 211 228 190 203 240 184 137 211 203 196 220 180 189 208 165 212 263 251 264 288 200 236 204 230 257 227 262 266 223 223 220 190 202 195 202 257 227
229 221 219 270 299 334 228 194 147 61 261 122 137 184 208 189 178 167 168 216 269 185 215 204 237 197 206 252 187 201 184 277 288 273 286 188 259 220 217 226 224 277 292 287
234 217 216 243 284 346 246 263 206 140 171 141 141 205 178 212 147 237 134 199 199 225 249 19 327 295 293 266 215 229 209 280 330 268 261 282 295 224 175 193 224 183 194 232
233 222 210 228 258 265 266 263 139 115 237 172 189 195 152 186 185 147 128 124 136 117 264 250 232 246 262 241 234 230 277 101 263 287 333 336 255 259 180 172 239 230 281 270
222 216 227 218 234 264 193 282 219 154 220 179 157 144 192 164 174 157 168 122 80 70 256 285 328 334 14 314 266 238 203 229 281 296 280 295 359 248 142 170 269 199 221 270
215 211 216 212 212 262 254 267 328 102 128 232 132 151 174 165 175 155 126 91 125 155 257 86 243 237 222 281 338 325 216 167 253 11 322 259 246 288 181 121 344 210 186 269
205 202 209 206 202 226 161 234 314 112 127 267 138 173 186 141 117 119 124 153 125 40 184 180 205 270 193 246 169 192 110 209 214 219 275 287 273 282 161 62 249 220 192 229
203 203 201 200 190 184 123 256 1 121 134 258 162 179 163 117 81 147 203 65 148 103 196 223 217 238 235 288 218 179 173 161 198 137 236 288 180 114 97 233 290 238 215 231
195 205 197 194 185 170 122 143 323 357 87 194 38 40 22 35 56 135 149 173 162 179 103 232 84 285 79 116 291 230 272 192 192 203 224 225 199 234 251 193 273 289 241 236
203 198 194 189 182 168 133 145 227 63 71 333 49 270 9 38 29 329 124 219 151 128 157 142 201 242 314 215 248 299 282 157 242 356 322 264 273 246 231 245 238 274 252 265
201 198 197 185 177 167 135 125 170 88 111 123 282 302 35 29 10 327 20 124 106 100 137 227 141 150 209 241 262 251 230 147 241 265 301 309 301 343 318 314 295 299 297 254
179 173 189 174 169 178 114 109 190 138 126 186 249 329 14 4 326 236 169 190 182 140 208 138 218 211 111 276 270 262 328 347 347 296 318 287 298 312 317 340 329 318 312 313
153 156 164 175 166 138 85 9 283 156 123 93 52 277 35 326 354 122 132 161 129 184 178 204 300 314 164 182 251 69 331 302 276 290 321 295 281 312 358 322 321 325 312 298
153 151 154 158 143 133 148 186 206 152 101 86 17 349 79 269 333 54 90 20 86 90 143 194 186 223 197 162 223 301 316 317 317 331 335 319 358 314 315 316 320 317 299 282
146 141 142 150 133 105 81 340 138 109 87 75 111 275 262 203 156 121 346 101 46 22 133 336 196 12 329 244 251 324 327 319 302 331 323 278 287 302 307 313 322 328 326 328
130 133 121 91 64 138 178 139 94 63 122 145 101 144 219 200 94 95 68 40 139 285 147 249 122 267 225 207 274 306 306 306 291 312 302 294 303 306 318 323 327 323 319 324
124 80 103 164 188 156 114 87 89 6 340 42 166 60 147 164 75 98 87 0 174 113 246 60 113 240 260 233 219 257 284 291 313 329 339 333 327 329 327 324 320 316 312 313
83 113 100 220 134 86 53 134 157 116 354 221 214 181 147 272 126 185 174 175 170 187 254 141 239 264 233 208 249 262 275 277 278 234 267 281 282 301 314 319 323 320 315 313
136 114 97 80 56 47 132 141 59 120 217 266 158 198 165 165 124 100 186 160 192 236 181 88 261 242 206 194 258 281 275 274 285 257 274 281 285 291 293 299 310 316 311 311
58 61 73 129 59 148 166 184 275 279 199 199 167 133 138 97 64 79 109 172 223 76 85 224 228 244 230 215 247 293 304 304 289 290 282 277 275 287 277 307 311 316 320 322
85 119 134 161 228 253 185 181 187 227 133 135 127 93 126 151 114 160 184 211 80 63 267 231 219 217 221 210 201 98 275 295 281 274 270 271 275 304 301 302 312 335 335 331
109 91 193 191 228 248 214 184 24 190 151 117 87 60 75 122 100 199 102 78 248 206 226 217 209 213 203 226 221 221 242 256 258 252 266 278 304 320 314 320 329 344 337 343
101 69 80 306 57 301 207 150 202 187 140 120 64 106 72 199 148 166 208 140 214 242 215 219 174 221 223 223 220 231 224 248 266 288 275 293 314 308 306 327 338 342 9 347
152 261 113 133 116 178 203 151 210 149 88 149 112 104 209 97 110 242 193 199 218 213 239 221 204 208 228 232 232 253 241 250 257 256 270 262 280 313 35 7 333 332 17 346